Simultaneous Nadir Overpasses (SNOs) Predictions

Prediction of SNOs between LANDSAT-8 and NOAA-19 Satellite Orbit:

Table of predicted SNOs for the next 14.0 days since TLE Epoch: 8/21/2021
Index Date (LANDSAT-8) Time (LANDSAT-8) Lat,Lon (LANDSAT-8) SZA (LANDSAT-8 ) Date (NOAA-19) Time (NOAA-19) Lat,Lon (NOAA-19) SZA (NOAA-19 ) Distance(km) Time Diff (sec)
1 08/22/2021 18:20:55 -80.49, 116.97 109.62 08/22/2021 18:21:05 -80.49, 116.87 109.62 1.89 10
2 08/24/2021 23:54:39 80.49,-146.44 71.17 08/24/2021 23:54:10 80.50,-146.58 71.15 2.80 29
3 08/25/2021 00:44:06 -80.46, 20.90 108.88 08/25/2021 00:45:11 -80.49, 20.99 108.82 3.05 65
4 08/27/2021 05:28:23 -80.49, -49.85 108.05 08/27/2021 05:27:19 -80.51, -49.85 108.06 1.32 64
5 08/27/2021 06:17:49 80.49, 117.78 71.97 08/27/2021 06:18:16 80.49, 117.68 71.97 1.80 27
6 08/29/2021 11:51:34 -80.49,-145.64 107.23 08/29/2021 11:51:26 -80.50,-145.78 107.24 2.85 8
7 08/31/2021 17:25:17 80.52, -48.84 73.63 08/31/2021 17:24:31 80.50, -48.79 73.60 2.39 46
8 08/31/2021 18:14:45 -80.49, 118.55 106.41 08/31/2021 18:15:32 -80.49, 118.61 106.39 1.08 47



Historial Predications of SNOs between LANDSAT-8 and NOAA-19
